Regional Weather Roundup
Issued by NWS

Home | Current Version | Previous Version | Graphics & Text | Print | Product List | Glossary On
Versions: 1 2 3 4 5 6 7 8 9 10 11 12 13 14 15 16 17 18 19 20 21 22 23 24 25 26 27 28 29 30 31 32 33 34 35 36 37 38 39 40 41 42 43 44 45 46 47 48 49 50
000
ASUS43 KLOT 281508
RWRIL

ILLINOIS REGIONAL WEATHER ROUNDUP
NATIONAL WEATHER SERVICE CHICAGO/ROMEOVILLE IL
1000 AM CDT SAT MAR 28 2015

NOTE: "FAIR" INDICATES FEW OR NO CLOUDS BELOW 12,000 FEET WITH NO
SIGNIFICANT WEATHER AND/OR OBSTRUCTIONS TO VISIBILITY.

* THESE STATIONS ARE NOT UNDER NWS QUALITY CONTROL. THEY ALSO MAY NOT
  REPORT WEATHER SUCH AS PRECIPITATION OR FOG.

ILZ001-002-007-009-015-016-024-281600-
NORTHWEST ILLINOIS

CITY           SKY/WX    TMP DP  RH WIND       PRES   REMARKS
MOLINE         SUNNY     30  17  58 SE7       30.34R WCI  23
STERLING*      SUNNY     30  16  55 SE5       30.35R WCI  25
SAVANNA*       SUNNY     31  17  56 S7        30.34S WCI  24
$$

ILZ003-004-008-010-011-017-018-281600-
NORTH CENTRAL ILLINOIS

CITY           SKY/WX    TMP DP  RH WIND       PRES   REMARKS
ROCKFORD       MOSUNNY   30  14  51 S6        30.36R WCI  24
FREEPORT*      SUNNY     28  15  58 CALM      30.35R
ROCHELLE*      SUNNY     29  16  57 E7        30.34R WCI  22
DE KALB*       SUNNY     28  15  58 E6        30.33R WCI  21
PERU*          SUNNY     31  16  55 E7        30.35R WCI  24
$$

ILZ005-006-012>014-019>023-281600-
NORTHEAST ILLINOIS

CITY           SKY/WX    TMP DP  RH WIND       PRES   REMARKS
CHICAGO-OHARE  MOSUNNY   29  10  45 NE7       30.33R WCI  22
CHICAGO-MIDWAY MOSUNNY   30  11  45 NE6       30.34R WCI  24
AURORA         SUNNY     29  12  49 NE9       30.34R WCI  20
LANSING*       SUNNY     29  10  45 NE6       30.34R WCI  23
JOLIET*        SUNNY     31  14  49 E5        30.34S WCI  26
WAUKEGAN       SUNNY     27  13  55 E9        30.34R WCI  18
DUPAGE AIRPORT SUNNY     30  14  51 NE9       30.33R WCI  22
KANKAKEE*      SUNNY     28  15  57 NE7       30.34R WCI  21
WHEELING       SUNNY     29  10  45 NE8       30.36R WCI  21
MORRIS*        SUNNY     30  13  49 E7        30.34R WCI  23
ROMEOVILLE*    SUNNY     30  12  47 E9        30.33R WCI  21
NORTHERLY ISL    N/A     28  12  51 N7          N/A  WCI  21
$$

LMZ740>746-281600-
SOUTHERN LAKE MICHIGAN

STATION/POSITION SKY/WX   TEMP    WIND        PRES    VSBY  WAVE
                          AIR SEA DIR/SP/G                  HT/PER
                          (F)     (DEG/KT/KT) (MB)    (MI)  (FT/S)
HARRISON CRIB              25      40/  8/ 10   N/A
BURNHAM HARBOR             28      40/  8/ 10   N/A
CALUMET HARBOR             26      20/  7/ 12 1025.6R
BURNS HARBOR               23      70/  8/ 10 1027.1R
MICHIGAN CITY              20      30/  6/  9   N/A
$$

ILZ025>027-034>036-040-047-049-050-058-095>099-281600-
WEST-CENTRAL ILLINOIS

CITY           SKY/WX    TMP DP  RH WIND       PRES   REMARKS
QUINCY         SUNNY     33  16  49 SE10      30.31R WCI  25
GALESBURG*     SUNNY     31  17  57 SE6       30.33R WCI  25
MACOMB*        SUNNY     30  19  61 SE12      30.35R WCI  21
JACKSONVILLE*  SUNNY     32  21  64 E8        30.34R WCI  25
PITTSFIELD*    SUNNY     33  22  64 E8        30.33R WCI  26
$$

ILZ028>032-037-038-041>044-048-051>054-059>061-281600-
CENTRAL ILLINOIS

CITY           SKY/WX    TMP DP  RH WIND       PRES   REMARKS
PONTIAC        SUNNY     31  17  56 NE9       30.34R WCI  22
BLOOMINGTON    SUNNY     30  17  58 E8        30.33R WCI  22
DECATUR        SUNNY     29  16  58 E8        30.34R WCI  21
PEORIA         SUNNY     31  14  49 VRB5      30.34R WCI  26
LACON*         SUNNY     30  14  51 E5        30.34R WCI  25
LINCOLN*       SUNNY     30  18  59 NE3       30.36R
SPRINGFIELD    SUNNY     31  15  52 SE6       30.34R WCI  25
TAYLORVILLE    SUNNY     30  16  55 E6        30.34R WCI  24
$$

ILZ033-039-045-046-055>057-062-063-281600-
EAST-CENTRAL ILLINOIS

CITY           SKY/WX    TMP DP  RH WIND       PRES   REMARKS
CHAMPAIGN      SUNNY     30  15  53 E8        30.32R WCI  22
DANVILLE*      SUNNY     27  15  60 NE8       30.30R WCI  18
RANTOUL*       SUNNY     30  15  54 NE9       30.32R WCI  22
MATTOON        SUNNY     27  15  61 NE10      30.31R WCI  17
PARIS*         SUNNY     28  16  59 CALM      30.33R
$$

ILZ079-100>102-281600-
SOUTHWEST ILLINOIS

CITY           SKY/WX    TMP DP  RH WIND       PRES   REMARKS
BELLEVILLE     FAIR      32  24  71 VRB6      30.32R WCI  27
CAHOKIA*       FAIR      35  21  56 SE5       30.33R WCI  31
SPARTA*        MOSUNNY   32  23  68 E5        30.33R WCI  28
$$

ILZ064>066-069>071-074>076-080>082-084>086-088>090-092>094-281600-
SOUTH-CENTRAL ILLINOIS

CITY           SKY/WX    TMP DP  RH WIND       PRES   REMARKS
CARBONDALE     MOSUNNY   34  21  59 E6        30.33R WCI  29
CAIRO*         SUNNY     35  22  58 CALM      30.33R
EFFINGHAM*     SUNNY     29  12  50 N7        30.35R WCI  22
MARION         MOSUNNY   34  23  64 N6        30.34R WCI  29
MT. VERNON     SUNNY     30  16  55 CALM      30.34R
CENTRALIA*     MOSUNNY   31  17  54 NE3       30.33S
SALEM*         SUNNY     32  20  61 NE5       30.34R WCI  28
METROPOLIS*    MOSUNNY   35  21  57 CALM      30.32R
$$

ILZ067-068-072-073-078-083-087-091-281600-
SOUTHEAST ILLINOIS

CITY           SKY/WX    TMP DP  RH WIND       PRES   REMARKS
LAWRENCEVILLE  SUNNY     29  17  61 N6        30.34R WCI  23
FLORA*         SUNNY     28  16  60 CALM      30.34R
FAIRFIELD*     SUNNY     30  18  61 NW6       30.33R WCI  24
HARRISBURG*    MOSUNNY   32  19  57 N6        30.35R WCI  26
ROBINSON*      SUNNY     28  16  59 NE6       30.34R WCI  22
CARMI*         SUNNY     31  13  47 NE8       30.33R WCI  23
$$

ABBREVIATIONS USED IN REMARKS
   TC - TEMPERATURE IN CELSIUS
  WCI - WIND CHILL INDEX
   HX - HEAT INDEX
  VSB - VISIBILITY
$$




USA.gov is the U.S. government's official web portal to all federal, state and local government web resources and services.